www.pogodaiklimat.ru

Погода и климат >> Архив погоды >> Гана >> Tema


ПОГОДА в Tema

  • Прогноз погоды в Tema
  • Монитор погоды в Tema
  • Климат города

АРХИВ ПОГОДЫ в Tema

Время (UTC), дата Ветер
(напр.,м/с)
 
Видим.   Явления Облачность Т
(С)
Тd
(С)
f
(%)
Тe
(С)
Тes
(С)
Комфортность P
(гПа)
Po
(гПа)
Тmin
(С)
Tmax
(С)
R
(мм)
R24
(мм)
S
(см)
12 11.12 СЗ 3 8000 м мгла 9/0
[Cs]
+30.1 +23.1 66 +40 +53 опасность
солнечного
удара
1009.8 1010.0
15 11.12 ЮВ 4 8000 м мгла ясно +29.6 +23.3 69 +40 +45 очень
душно
1008.1 1008.0
18 11.12 ЮЗ 2 6000 м дымка 6/0
[Ci sp]
+29.0 +25.2 80 +30.2
09 12.12 СЗ 1 7000 м мгла 4/0
[Ci sp]
+28.8 +23.3 72 +39 +48 очень
душно
1011.7 1012.0
12 12.12 ЮЗ 3 7000 м мгла ясно +22.9 +19 +35 опасность
простуды
1010.7 1011.0
15 12.12 Ю 2 7000 м мгла ясно +30.0 +23.9 70 +41 +50 опасность
перегрева
1008.7 1009.0
21 12.12 З 1 7000 м дымка ясно +28.0 +25.9 88 +42 +42 опасность
перегрева
1011.7 1012.0
00 13.12 З 1 7000 м дымка ясно +27.8 +25.7 88 +41 +41 опасность
перегрева
1011.2 1011.0
06 13.12 З 1 7000 м дымка ясно +26.5 +25.2 93 +38 +38 очень
душно
1010.5 1011.0 +26.5
09 13.12 СЗ 1 8000 м дымка ясно +28.5 +25.4 83 +42 +51 опасность
перегрева
1011.8 1012.0
12 13.12 ЮЗ 3 8000 м мгла 3/3 500 м
[Cu med, cong]
+30.0 +22.5 64 +39 +50 очень
душно
1010.5 1011.0
15 13.12 ЮЗ 2 8000 м мгла 3/3 500 м
[Cu med, cong]
+30.0 +25.5 77 +44 +50 опасность
перегрева
1010.5 1011.0
21 13.12 ЮЗ 1 8000 м дымка ясно +28.5 +26.5 89 +44 +44 опасность
перегрева
1011.6 1012.0
00 14.12 ЮЗ 1 8000 м дымка ясно +28.0 +26.1 89 +42 +42 опасность
перегрева
1010.8 1011.0
03 14.12 СЗ 1 8000 м дымка ясно +27.2 +25.6 91 +40 +40 очень
душно
1007.9 1008.0
06 14.12 СЗ 2 2500 м дымка 5/0
[Ci sp]
+26.5 +25.2 93 +38 +38 очень
душно
1009.9 1010.0 +26.5
12 14.12 ЮЗ 4 8000 м мгла 3/3 500 м
[Cu med, cong]
+30.7 +25.1 72 +44 +52 опасность
перегрева
1010.6 1011.0
15 14.12 Ю 5 8000 м мгла ясно +30.0 +25.5 77 +44 +48 опасность
перегрева
1008.4 1008.0
21 14.12 ЮЗ 3 8000 м дымка ясно +28.0 +26.0 89 +42 +42 опасность
перегрева
1011.8 1012.0
09 15.12 З 1 8000 м мгла ясно +29.0 +25.0 79 +42 +51 опасность
перегрева
1012.2 1012.0
12 15.12 ЮЗ 4 8000 м мгла ясно +30.8 +25.7 74 +45 +57 опасность
перегрева
1010.2 1010.0
18 15.12 З 3 8000 м дымка ясно +28.7 +25.9 85 +43 +43 опасность
перегрева
1008.4 1008.0 +31.4
00 16.12 ЮЗ 1 8000 м 4/4 330 м
[Sc]
+27.8 +25.9 89 +41 +41 опасность
перегрева
1010.8 1011.0
09 16.12 ЮЗ 3 7000 м мгла ясно +29.6 +25.0 76 +42 +50 опасность
перегрева
1011.0 1011.0
12 16.12 ЮЗ 3 7000 м мгла 6/4 500 м
[Cu med, cong Ci sp]
+30.7 +26.1 77 +46 +54 опасность
перегрева
1009.4 1009.0
15 16.12 Ю 3 7000 м слабый дождь 9/5 330 м
[Cu Sc Ac trans]
+29.5 +26.2 82 +45 +46 опасность
перегрева
1008.2 1008.0
00 17.12 ЮЗ 1 7000 м дымка 3/3 330 м
[Sc]
+28.2 +26.2 89 +43 +43 опасность
перегрева
1010.7 1011.0
06 17.12 З 1 7000 м дымка 5/0
[Ci sp]
+26.0 +23.0 84 +35 +35 очень
душно
1009.5 1010.0 +25.8 0.0
09 17.12 СЗ 2 8000 м мгла 9/5 400 м
[Cu Sc Ac trans]
+28.6 +22.2 68 +37 +39 очень
душно
1010.9 1011.0
12 17.12 СЗ 2 8000 м мгла 9/3 500 м
[Cu med, cong Ac trans]
+33.0 +25.0 63 +47 +53 опасность
перегрева
1009.5 1010.0
18 17.12 ЮЗ 3 8000 м мгла 8/5 400 м
[Cb cap Ac trans Cs]
+28.5 +24.3 78 +40 +40 очень
душно
1008.7 1009.0 +33.5
21 17.12 ЮЗ 3 8000 м дымка 8/0
[Ac trans Ci sp]
+27.8 +25.7 88 +41 +41 опасность
перегрева
1010.8 1011.0
00 18.12 ЮЗ 3 8000 м дымка 8/3 330 м
[Sc Ac trans Ci sp]
+27.5 +25.8 90 +41 +41 опасность
перегрева
1010.9 1011.0
03 18.12 ЮЗ 3 8000 м дымка 8/0
[Ac trans Ci sp]
+27.5 +25.8 90 +41 +41 опасность
перегрева
1009.6 1010.0
06 18.12 ЮЗ 3 8000 м дымка 9/0
[Ac trans]
+27.5 +25.5 89 +40 +40 очень
душно
1010.0 1010.0 +27.5

 

Местоположение метеостанции Tema (Гана): широта 5.62 долгота 0.00 высота над уровнем моря 18 м.

В архиве по умолчанию представлена погода в Tema за последнюю неделю. Архивные данные за месяц целиком и за предыдущие месяцы, начиная с января 2011 года, Вы можете получить, выбрав интересующий диапазон дат из раскрывающегося списка и нажав кнопку "Ввод!".

Внимание! Время в таблицах - всемирное. Для получения местного времени необходимо прибавить поправку, которая в Tema равна 1 ч.

Смотрите также архив погоды в соседних городах и на ближайших метеорологических станциях:

Погода в Accra (Гана) (19 км)
Погода в Akuse (Гана) (55 км)
Погода в Koforidua (Гана) (58 км)
Погода в Ada (Гана) (72 км)
Погода в Akatsi (Гана) (105 км)
Погода в Akim Oda (Гана) (114 км)
Погода в Ho (Гана) (121 км)
Погода в Saltpond (Гана) (127 км)
Погода в Abetifi (Гана) (143 км)
Погода в Lome (Того) (151 км)

Пояснения к столбцам:

Ветер - указаны скорость ветра в м/с - средняя за 10 мин, порывы в срок и между сроками (в фигурных скобках) и направление, откуда дует ветер: С - северный, СВ - северо-восточный, В - восточный, ЮВ - юго-восточный, Ю - южный, ЮЗ - юго-западный, З - западный, СЗ - северо-западный.
Видимость - горизонтальная дальность видимости в метрах или километрах. При видимости от 1 до 10 км при отсутствии осадков обычно наблюдается дымка, при ухудшении видимости до 1 км и менее - туман. В сухую погоду видимость может ухудшаться дымом, пылью или мглою.
Явления - указаны атмосферные явления, наблюдавшиеся в срок или в последний час перед сроком; фигурными скобками обозначены явления, наблюдавшиеся между сроками (за 1-3 часа до срока); квадратными скобками обозначены град или гололедные отложения с указанием их диаметра в мм.
Облачность - указаны через наклонную черту общая и нижняя облачность в баллах и высота нижней границы облаков в метрах; квадратными скобками обозначены формы облаков: Ci - перистые, Cs - перисто-слоистые, Cc - перисто-кучевые, Ac - высококучевые, As - высокослоистые, Sc - слоисто-кучевые, Ns - слоисто-дождевые, Cu - кучевые, Cb - кучево-дождевые. Подробнее классификацию облаков см. в Атласе облаков (PDF).
T - Температура воздуха - температура, измеренная на высоте 2 м над землей.
Td - Температура точки росы - температура, при понижении до которой содержащийся в воздухе водяной пар достигнет насыщения.
f - Относительная влажность воздуха - влажноcть воздуха, измеренная на высоте 2 м над землей.
Te - Эффективная температура - температура, которую ощущает одетый по сезону человек в тени. Характеристика душности погоды. При расчете учитывается влияние влажности воздуха и скорости ветра на теплоощущения человека.
Tes - Эффективная температура на солнце - температура, которую ощущает человек, с поправкой на солнечный нагрев. Характеристика знойности погоды. Зависит от высоты солнца над горизонтом, облачности и скорости ветра. Ночью, в пасмурную погоду, а также при ветре 12 м/с и более поправка равна нулю.
P - Атмосферное давление - приведенное к уровню моря атмосферное давление.
Po - Атмосферное давление - измеренное на уровне метеостанции атмосферное давление.
Tmin - Минимальная температура - минимум температуры воздуха на высоте 2 м над землей.
Tmax - Максимальная температура - максимум температуры воздуха на высоте 2 м над землей.
R - Количество осадков - Количество выпавших осадков за период времени, мм. При наведении курсора мыши на число - период времени, за который выпало указанное количество осадков.
R24 - Количество осадков - Количество выпавших осадков за 24 часа, мм.
S - Снежный покров - Высота снежного покрова, см. При наведении курсора мыши на число - состояние снежного покрова и степень покрытия местности в баллах.